Showing default

HULIANWANG DIGUI-92, 66000

Orbit data source: Space-Track

HULIANWANG DIGUI-92, 66000 is a payload satellite owned by Zhongguo Xingwang (CN) in LEO that was launched on Thu, 16 Oct 2025 UTC via a CHANG ZHENG 8A launch vehicle from the Wenchang Satellite Launch Center (WSC). Payload-class satellites include a variety of spacecraft equipped with specific instruments for various scientific and technological missions. These include communications satellites like Starlink; space stations such as the ISS; scientific satellites like the Hubble; Earth observation satellites from companies like Planet Labs, Umbra, and HawkEye 360; GPS; miniature CubeSats for education and research; and military/defense satellites.

Loading next visibility...
Identifier
66000, 2025-231F
Orbit
LEO
Country
Flag of CNCN / PRC
Related business
Manufacturer
CAST
Mission
Operational Civil Communications
Bus & Motor
XINGWANG C, Unknown motor
Mass
~700 kg wet, ~700 kg dry
Launch date (UTC)
2025-10-16 (8 months ago)
Launch vehicle
CHANG ZHENG 8A
Launch site
Wenchang Satellite Launch Center (WSC)
Object type
Payload
Rocket body
Debris
Shape & HBR
Box + 2 Pan, 1.9 m
Radar Cross Section
5.935 m², Large (>1 m²)

Expand to show TLE details & history
Last TLE update: 13 hours ago

TLE from 13 hours ago
0 HULIANWANG DIGUI-92
1 66000U 25231F   26171.36443703 -.00000128  00000-0 -95659-5 0  9994
2 66000  50.0041 164.2569 0000835 251.1813 108.8969 13.29328166 33316
Epoch: 2026-06-20T08:44Z
TLE epoch observation values (Epoch: 2026-06-20T08:44:47.359Z)
Latitude
0.00002°
Longitude
124.47947°
Altitude
1,150.008 km
Speed
7.279 km/s
True Right ascension
10h 57m 01s
True Declination
0° 00' 00"
Sunlit
Object was in daylight at epoch
Visualization orbit readout
Latitude
Unknown
Longitude
Unknown
Altitude
Unknown
Speed
Unknown
Apparent Right ascension
Unknown
Apparent Declination
Unknown
Sunlit
N/A
Visualization observer readout
Local Sidereal Time
08:42:18
Azimuth
Unknown
Elevation
Unknown
Doppler factor
Unknown
Orbital elements
Apogee altitude
1,150.632 km
Perigee altitude
1,149.375 km
Semi-major axis
7,528.14 km
Eccentricity
0.00008
Inclination
50.0041°
RAAN
164.2569°
Arg. of periapsis
251.1813°
True anomaly
108.90595°
Mean anomaly
108.8969°
Eccentric anomaly
108.90143°
Mean motion
3.32286 °/min
Orbital period
108.34 mins
BSTAR
-0.0000095659
Loading maneuver chart data...
Computing Atmospheric mass density...
Loading historical data...
Loading historical data...
Loading historical data...
Loading historical data...
Loading historical data...
Loading historical data...
Loading historical data...

Documentation

Showing up to 5 results
|